Погода в Слободском

Россия / Ростовская область     47°25′57″N   40°49′57″E
темп.,
°C
ветер,
м/с
пор.,
м/с
влажн.,
%
обл.,
%
осадки,
мм/ч
давл.,
гПа
погр.,
м
22 мая, вс
вс2200:00+12зюз10208888 1.8 1006752
03:00+13зюз102186100 2.4 1004772
06:00+13зюз101887100 0.1 1003741
09:00+16зюз101483100 0.1 1002965
12:00+16зюз81287100 0.3 1001819
15:00+16зюз8128890 0.8 1001761
18:00+15зюз81284100 2.4 1000505
21:00+13зюз41088100 3.3 1001257
23 мая, пн
пн2300:00+11зюз38935 0.2 1001158
03:00+9зсз38945 0.2 1002158
06:00+10сз258917 0.0 1003183
09:00+13ссв2280100 0.0 1004624
12:00+15св2268100 0.1 10041078
15:00+15ссв447097 0.4 1004844
18:00+13ссв4774100 0.0 1005273
21:00+12ссв2474100 0.0 1007119
24 мая, вт
вт2400:00+11ссв3578100 0.5 1007107
03:00+9всв3689100 2.8 1009183
06:00+9св3589100 0.8 1009151
09:00+11всв2377100 0.8 1011280
12:00+13ю327297 0.1 1012637
15:00+14ю217192 0.6 1012535
18:00+13зюз2279100 1.6 101390
21:00+10з228499 2.3 101512
25 мая, ср
ср2500:00+9з22866 0.1 101520
03:00+8з22840 0.1 101616
06:00+9з25825 0.0 1017128
09:00+15з5663100 0.0 1018644
12:00+18з664970 0.0 10182044
15:00+18з4657100 0.0 10171466
18:00+15зюз51172100 0.1 1018374
21:00+11зюз411815 0.1 1019225
26 мая, чт
чт2600:00+13зюз6137187 0.0 1019445
03:00+10зюз4128484 0.0 1019269
06:00+12зюз5138178 0.0 1019403
09:00+17зюз7106775 0.0 1019632
12:00+21зюз77545 0.0 10181574
15:00+21зюз67515 0.0 10181956
18:00+19зюз57635 0.0 1017818
21:00+13зюз337986 0.0 101750